User: anonymous   Login
Location: Oshawa
(43.9000°N, 78.8670°W)
Time: 15:19:16
(UTC-05:00)
Language:

CARTOSAT-1 - Orbit

View from above orbital plane
View from above orbital plane
View from above satellite
View from above satellite

Ground track
Ground track

The orbit data is extracted from the following two-line orbital elements,

1 28649U 05017A   16339.42244807  .00000235  00000-0  35091-4 0  9997
2 28649  97.8832  50.6647 0001889   3.8214 356.3007 14.83449405627102
Epoch (UTC): 04 December 2016 10:08:19
Eccentricity: 0.0001889
inclination: 97.8832°
perigee height: 617 km
apogee height: 620 km
right ascension of ascending node: 50.6647°
argument of perigee: 3.8214°
revolutions per day: 14.83449405
mean anomaly at epoch: 356.3007°
orbit number at epoch: 62710

The dashed part of the orbit path shows where the satellite is in the earth's shadow,  

DLR